Location: Cedar Ridge
(38.0658°N, 120.2769°W)
Time: 22:36:46
(UTC+00:00)

Cosmos 2322 Rocket - Pass Details

Date: 10 September 2024
Orbit: 832 x 850 km, 71.0° (Epoch: 12 October)

Event Time Altitude Azimuth Distance (km) Brightness Sun altitude
Rises 12:05:30 0° 334° (NNW) 3,414 5.3 -18.7°
Reaches altitude 10° 12:07:58 10° 332° (NNW) 2,473 4.6 -18.2°
Maximum altitude 12:13:35 67° 251° (WSW) 913 2.1 -17.2°
Drops below altitude 10° 12:19:09 10° 170° (S) 2,445 4.5 -16.1°
Sets 12:21:35 0° 168° (SSE) 3,373 5.3 -15.7°
